This is the latest recevied weather packets stored in our database for station/object N4BBA. If no packets are shown the sender has not sent any weather packets the latest 10 day(s).
| Time | Temp. | Humidity | Pressure | Rain* | Wind** | Luminosity | Snow |
|---|---|---|---|---|---|---|---|
| 1777897995 | 13.33° C | 95% | 1016.7 hPa | 0 mm | - | 134 W/m² | - |
| 1777897690 | 12.78° C | 95% | 1016.7 hPa | 0 mm | - | 77 W/m² | - |
| 1777897387 | 12.78° C | 96% | 1016.8 hPa | 0 mm | - | 71 W/m² | - |
| 1777897083 | 12.22° C | 96% | 1016.9 hPa | 0 mm | - | 83 W/m² | - |
| 1777896780 | 11.67° C | 96% | 1017 hPa | 0 mm | - | 60 W/m² | - |
| 1777896477 | 11.11° C | 97% | 1016.9 hPa | 0 mm | - | 52 W/m² | - |
| 1777896174 | 11.11° C | 97% | 1016.9 hPa | 0 mm | - | 50 W/m² | - |
| 1777895872 | 10.56° C | 97% | 1017 hPa | 0 mm | - | 49 W/m² | - |
| 1777895569 | 10° C | 97% | 1016.9 hPa | 0 mm | - | 47 W/m² | - |
| 1777895267 | 10° C | 97% | 1017 hPa | 0 mm | - | 46 W/m² | - |
| 1777894964 | 9.44° C | 97% | 1017.1 hPa | 0 mm | - | 44 W/m² | - |
| 1777894662 | 7.78° C | 96% | 1017.1 hPa | 0 mm | - | 42 W/m² | - |
| 1777894358 | 7.22° C | 96% | 1017.2 hPa | 0 mm | - | 41 W/m² | - |
| 1777894056 | 6.67° C | 96% | 1017.1 hPa | 0 mm | - | 39 W/m² | - |
| 1777893752 | 6.67° C | 96% | 1017 hPa | 0 mm | - | 38 W/m² | - |
| 1777893449 | 6.67° C | 96% | 1017.1 hPa | 0 mm | - | 35 W/m² | - |
| 1777893145 | 6.67° C | 96% | 1017 hPa | 0 mm | - | 33 W/m² | - |
| 1777892842 | 6.11° C | 96% | 1016.9 hPa | 0 mm | - | 30 W/m² | - |
| 1777892538 | 6.11° C | 96% | 1017.1 hPa | 0 mm | - | 28 W/m² | - |
| 1777892234 | 6.11° C | 96% | 1017.1 hPa | 0 mm | - | 25 W/m² | - |
| 1777891930 | 6.11° C | 96% | 1016.9 hPa | 0 mm | - | 22 W/m² | - |
| 1777891628 | 5.56° C | 96% | 1017 hPa | 0 mm | - | 18 W/m² | - |
| 1777891324 | 6.11° C | 96% | 1016.9 hPa | 0 mm | - | 15 W/m² | - |
| 1777891020 | 5.56° C | 96% | 1016.9 hPa | 0 mm | - | 12 W/m² | - |
| 1777890719 | 5.56° C | 96% | 1016.9 hPa | 0 mm | - | 9 W/m² | - |
* Rain latest hour (hover to see other rain measurements)
** Current wind speed in m/s (hover to see current wind gust speed)